"Period start","avg(HW err(1)/warn(2) (#))","avg(Visibility (m))","avg(Weather code (#))","avg(Precip intensity (mm/h))","min(HW err(1)/warn(2) (#))","max(HW err(1)/warn(2) (#))","std(HW err(1)/warn(2) (#))","med(HW err(1)/warn(2) (#))","min(Visibility (m))","max(Visibility (m))","std(Visibility (m))","med(Visibility (m))","min(Weather code (#))","max(Weather code (#))","std(Weather code (#))","med(Weather code (#))","min(Precip intensity (mm/h))","max(Precip intensity (mm/h))","std(Precip intensity (mm/h))","med(Precip intensity (mm/h))"
2017-06-16 00:00:00,2,42683,0,0.00,2,2,0,2,31426,50000,6224,43894,0,0,0,0,0.00,0.00,0.00,0.00
2017-06-16 00:10:00,2,39967,0,0.00,2,2,0,2,34035,50000,6375,35692,0,0,0,0,0.00,0.00,0.00,0.00
2017-06-16 00:20:00,2,35100,0,0.00,2,2,0,2,17581,45467,7183,36892,0,0,0,0,0.00,0.00,0.00,0.00
2017-06-16 00:30:00,2,34473,0,0.00,2,2,0,2,22778,50000,6750,32519,0,0,0,0,0.00,0.00,0.00,0.00
2017-06-16 00:40:00,2,40030,0,0.00,2,2,0,2,29151,50000,6893,39642,0,0,0,0,0.00,0.00,0.00,0.00
2017-06-16 00:50:00,2,35315,0,0.00,2,2,0,2,27632,41258,5162,36524,0,0,0,0,0.00,0.00,0.00,0.00
2017-06-16 01:00:00,2,41350,0,0.00,2,2,0,2,28163,50000,7377,44698,0,0,0,0,0.00,0.00,0.00,0.00
2017-06-16 01:10:00,2,35440,0,0.00,2,2,0,2,25146,50000,7536,35190,0,0,0,0,0.00,0.00,0.00,0.00
2017-06-16 01:20:00,2,35642,0,0.00,2,2,0,2,18766,49146,7300,35794,0,0,0,0,0.00,0.00,0.00,0.00
2017-06-16 01:30:00,2,36097,0,0.00,2,2,0,2,19457,50000,8992,35032,0,0,0,0,0.00,0.00,0.00,0.00
2017-06-16 01:40:00,2,38704,0,0.00,2,2,0,2,28041,50000,7352,36856,0,0,0,0,0.00,0.00,0.00,0.00
2017-06-16 01:50:00,2,44416,0,0.00,2,2,0,2,35673,50000,3775,44491,0,0,0,0,0.00,0.00,0.00,0.00
2017-06-16 02:00:00,2,41641,0,0.00,2,2,0,2,35846,50000,5035,39944,0,0,0,0,0.00,0.00,0.00,0.00
2017-06-16 02:10:00,2,35060,0,0.00,2,2,0,2,25513,48595,7417,33209,0,0,0,0,0.00,0.00,0.00,0.00
2017-06-16 02:20:00,2,37131,0,0.00,2,2,0,2,26605,47049,6749,37027,0,0,0,0,0.00,0.00,0.00,0.00
2017-06-16 02:30:00,2,41004,0,0.00,2,2,0,2,26810,50000,7737,43223,0,0,0,0,0.00,0.00,0.00,0.00
2017-06-16 02:40:00,2,42664,0,0.00,2,2,0,2,27842,50000,7253,45073,0,0,0,0,0.00,0.00,0.00,0.00
2017-06-16 02:50:00,2,41795,0,0.00,2,2,0,2,26145,50000,10023,48153,0,0,0,0,0.00,0.00,0.00,0.00
2017-06-16 03:00:00,2,41993,0,0.00,2,2,0,2,31255,50000,5268,42479,0,0,0,0,0.00,0.00,0.00,0.00
2017-06-16 03:10:00,2,40666,0,0.00,0,2,1,2,28416,50000,7789,42154,0,0,0,0,0.00,0.00,0.00,0.00
2017-06-16 03:20:00,1,38710,0,0.00,0,2,1,2,30448,46742,5655,38406,0,0,0,0,0.00,0.00,0.00,0.00
2017-06-16 03:30:00,0,42996,0,0.00,0,0,0,0,23854,50000,8994,45874,0,0,0,0,0.00,0.00,0.00,0.00
2017-06-16 03:40:00,0,39192,0,0.00,0,0,0,0,26059,50000,7661,40659,0,0,0,0,0.00,0.00,0.00,0.00
2017-06-16 03:50:00,0,41262,0,0.00,0,0,0,0,37286,49414,3943,39310,0,0,0,0,0.00,0.00,0.00,0.00
2017-06-16 04:00:00,0,41056,0,0.00,0,0,0,0,28424,50000,7564,43056,0,0,0,0,0.00,0.00,0.00,0.00
2017-06-16 04:10:00,0,45949,0,0.00,0,0,0,0,35631,50000,6129,49958,0,0,0,0,0.00,0.00,0.00,0.00
2017-06-16 04:20:00,0,45430,0,0.00,0,0,0,0,35281,50000,4379,46233,0,0,0,0,0.00,0.00,0.00,0.00
2017-06-16 04:30:00,0,41369,0,0.00,0,0,0,0,27951,50000,6701,40348,0,0,0,0,0.00,0.00,0.00,0.00
2017-06-16 04:40:00,0,45386,0,0.00,0,0,0,0,34433,50000,4565,46082,0,0,0,0,0.00,0.00,0.00,0.00
2017-06-16 04:50:00,0,47718,0,0.00,0,0,0,0,40627,50000,3242,50000,0,0,0,0,0.00,0.00,0.00,0.00
2017-06-16 05:00:00,0,48922,0,0.00,0,0,0,0,44505,50000,1820,50000,0,0,0,0,0.00,0.00,0.00,0.00
2017-06-16 05:10:00,0,48884,0,0.00,0,0,0,0,43563,50000,2008,50000,0,0,0,0,0.00,0.00,0.00,0.00
2017-06-16 05:20:00,0,48190,0,0.00,0,0,0,0,42666,50000,2672,49981,0,0,0,0,0.00,0.00,0.00,0.00
2017-06-16 05:30:00,0,49404,0,0.00,0,0,0,0,45822,50000,1266,50000,0,0,0,0,0.00,0.00,0.00,0.00
2017-06-16 05:40:00,0,47821,0,0.00,0,0,0,0,42109,50000,2815,49292,0,0,0,0,0.00,0.00,0.00,0.00
2017-06-16 05:50:00,0,45825,0,0.00,0,0,0,0,28518,50000,6438,49268,0,0,0,0,0.00,0.00,0.00,0.00
2017-06-16 06:00:00,0,44339,0,0.00,0,0,0,0,31436,50000,6492,47931,0,0,0,0,0.00,0.00,0.00,0.00
2017-06-16 06:10:00,0,46481,0,0.00,0,0,0,0,42288,50000,2888,46770,0,0,0,0,0.00,0.00,0.00,0.00
2017-06-16 06:20:00,0,49005,0,0.00,0,0,0,0,44811,50000,1591,50000,0,0,0,0,0.00,0.00,0.00,0.00
2017-06-16 06:30:00,0,44411,0,0.00,0,0,0,0,37244,50000,4818,44612,0,0,0,0,0.00,0.00,0.00,0.00
2017-06-16 06:40:00,0,44593,0,0.00,0,0,0,0,36977,50000,4638,44938,0,0,0,0,0.00,0.00,0.00,0.00
2017-06-16 06:50:00,0,39480,0,0.00,0,0,0,0,31551,48413,4645,39428,0,0,0,0,0.00,0.00,0.00,0.00
2017-06-16 07:00:00,0,43923,0,0.00,0,0,0,0,38497,48283,3358,45312,0,0,0,0,0.00,0.00,0.00,0.00
2017-06-16 07:10:00,0,38463,0,0.00,0,0,0,0,25934,50000,6697,37856,0,0,0,0,0.00,0.00,0.00,0.00
2017-06-16 07:20:00,0,48612,0,0.00,0,0,0,0,40867,50000,2694,49972,0,0,0,0,0.00,0.00,0.00,0.00
2017-06-16 07:30:00,0,45109,0,0.00,0,0,0,0,33711,50000,5110,46184,0,0,0,0,0.00,0.00,0.00,0.00
2017-06-16 07:40:00,0,47477,0,0.00,0,0,0,0,40281,50000,2940,48186,0,0,0,0,0.00,0.00,0.00,0.00
2017-06-16 07:50:00,0,45819,0,0.00,0,0,0,0,33932,50000,5137,48538,0,0,0,0,0.00,0.00,0.00,0.00
2017-06-16 08:00:00,0,48756,0,0.00,0,0,0,0,45203,50000,1902,50000,0,0,0,0,0.00,0.00,0.00,0.00
2017-06-16 08:10:00,0,40650,0,0.00,0,0,0,0,35564,50000,4461,40400,0,0,0,0,0.00,0.00,0.00,0.00
2017-06-16 08:20:00,0,43416,0,0.00,0,0,0,0,35978,50000,4663,44344,0,0,0,0,0.00,0.00,0.00,0.00
2017-06-16 08:30:00,0,47218,0,0.00,0,0,0,0,37667,50000,4130,49590,0,0,0,0,0.00,0.00,0.00,0.00
2017-06-16 08:40:00,0,46601,0,0.00,0,0,0,0,41722,50000,2719,46848,0,0,0,0,0.00,0.00,0.00,0.00
2017-06-16 08:50:00,0,45871,0,0.00,0,0,0,0,38209,50000,4365,47814,0,0,0,0,0.00,0.00,0.00,0.00
2017-06-16 09:00:00,0,45992,0,0.00,0,0,0,0,38393,50000,4521,47972,0,0,0,0,0.00,0.00,0.00,0.00
2017-06-16 09:10:00,0,44963,0,0.00,0,0,0,0,37923,50000,4122,45509,0,0,0,0,0.00,0.00,0.00,0.00
2017-06-16 09:20:00,0,47815,0,0.00,0,0,0,0,42890,50000,2439,49032,0,0,0,0,0.00,0.00,0.00,0.00
2017-06-16 09:30:00,0,48149,0,0.00,0,0,0,0,36693,50000,3983,50000,0,0,0,0,0.00,0.00,0.00,0.00
2017-06-16 09:40:00,0,47422,0,0.00,0,0,0,0,42417,50000,2880,48910,0,0,0,0,0.00,0.00,0.00,0.00
2017-06-16 09:50:00,0,47697,0,0.00,0,0,0,0,41209,50000,2920,49169,0,0,0,0,0.00,0.00,0.00,0.00
2017-06-16 10:00:00,0,45798,0,0.00,0,0,0,0,37223,50000,4888,48968,0,0,0,0,0.00,0.00,0.00,0.00
2017-06-16 10:10:00,0,48433,0,0.00,0,0,0,0,42778,50000,2606,49776,0,0,0,0,0.00,0.00,0.00,0.00
2017-06-16 10:20:00,0,49552,0,0.00,0,0,0,0,47771,50000,848,50000,0,0,0,0,0.00,0.00,0.00,0.00
2017-06-16 10:30:00,0,48739,0,0.00,0,0,0,0,46251,50000,1490,49449,0,0,0,0,0.00,0.00,0.00,0.00
2017-06-16 10:40:00,0,49668,0,0.00,0,0,0,0,47198,50000,838,50000,0,0,0,0,0.00,0.00,0.00,0.00
2017-06-16 10:50:00,0,48609,0,0.00,0,0,0,0,43500,50000,1948,49535,0,0,0,0,0.00,0.00,0.00,0.00
2017-06-16 11:00:00,0,49306,0,0.00,0,0,0,0,45619,50000,1446,50000,0,0,0,0,0.00,0.00,0.00,0.00
2017-06-16 11:10:00,0,49414,0,0.00,0,0,0,0,46254,50000,1228,50000,0,0,0,0,0.00,0.00,0.00,0.00
2017-06-16 11:20:00,0,48179,0,0.00,0,0,0,0,40890,50000,3030,50000,0,0,0,0,0.00,0.00,0.00,0.00
2017-06-16 11:30:00,0,49605,0,0.00,0,0,0,0,47205,50000,871,50000,0,0,0,0,0.00,0.00,0.00,0.00
2017-06-16 11:40:00,0,49644,0,0.00,0,0,0,0,47661,50000,754,50000,0,0,0,0,0.00,0.00,0.00,0.00
2017-06-16 11:50:00,0,49448,0,0.00,0,0,0,0,46132,50000,1160,50000,0,0,0,0,0.00,0.00,0.00,0.00
2017-06-16 12:00:00,0,49928,0,0.00,0,0,0,0,49281,50000,216,50000,0,0,0,0,0.00,0.00,0.00,0.00
2017-06-16 12:10:00,0,50000,0,0.00,0,0,0,0,50000,50000,0,50000,0,0,0,0,0.00,0.00,0.00,0.00
2017-06-16 12:20:00,0,48929,0,0.00,0,0,0,0,44611,50000,1742,50000,0,0,0,0,0.00,0.00,0.00,0.00
2017-06-16 12:30:00,0,49824,0,0.00,0,0,0,0,48895,50000,366,50000,0,0,0,0,0.00,0.00,0.00,0.00
2017-06-16 12:40:00,0,49613,0,0.00,0,0,0,0,46811,50000,942,50000,0,0,0,0,0.00,0.00,0.00,0.00
2017-06-16 12:50:00,0,50000,0,0.00,0,0,0,0,50000,50000,0,50000,0,0,0,0,0.00,0.00,0.00,0.00
2017-06-16 13:00:00,0,49761,0,0.00,0,0,0,0,48726,50000,409,50000,0,0,0,0,0.00,0.00,0.00,0.00
2017-06-16 13:10:00,0,49458,0,0.00,0,0,0,0,45852,50000,1252,50000,0,0,0,0,0.00,0.00,0.00,0.00
2017-06-16 13:20:00,0,49842,0,0.00,0,0,0,0,48416,50000,475,50000,0,0,0,0,0.00,0.00,0.00,0.00
2017-06-16 13:30:00,0,49850,0,0.00,0,0,0,0,48495,50000,452,50000,0,0,0,0,0.00,0.00,0.00,0.00
2017-06-16 13:40:00,0,50000,0,0.00,0,0,0,0,50000,50000,0,50000,0,0,0,0,0.00,0.00,0.00,0.00
2017-06-16 13:50:00,0,49855,0,0.00,0,0,0,0,48676,50000,395,50000,0,0,0,0,0.00,0.00,0.00,0.00
2017-06-16 14:00:00,0,49946,0,0.00,0,0,0,0,49459,50000,162,50000,0,0,0,0,0.00,0.00,0.00,0.00
2017-06-16 14:10:00,0,49850,0,0.00,0,0,0,0,48500,50000,450,50000,0,0,0,0,0.00,0.00,0.00,0.00
2017-06-16 14:20:00,0,49776,0,0.00,0,0,0,0,48647,50000,459,50000,0,0,0,0,0.00,0.00,0.00,0.00
2017-06-16 14:30:00,0,49934,0,0.00,0,0,0,0,49341,50000,198,50000,0,0,0,0,0.00,0.00,0.00,0.00
2017-06-16 14:40:00,0,49736,0,0.00,0,0,0,0,48049,50000,599,50000,0,0,0,0,0.00,0.00,0.00,0.00
2017-06-16 14:50:00,0,50000,0,0.00,0,0,0,0,50000,50000,0,50000,0,0,0,0,0.00,0.00,0.00,0.00
2017-06-16 15:00:00,0,49509,0,0.00,0,0,0,0,46112,50000,1173,50000,0,0,0,0,0.00,0.00,0.00,0.00
2017-06-16 15:10:00,0,50000,0,0.00,0,0,0,0,50000,50000,0,50000,0,0,0,0,0.00,0.00,0.00,0.00
2017-06-16 15:20:00,0,50000,0,0.00,0,0,0,0,50000,50000,0,50000,0,0,0,0,0.00,0.00,0.00,0.00
2017-06-16 15:30:00,0,49959,0,0.00,0,0,0,0,49589,50000,123,50000,0,0,0,0,0.00,0.00,0.00,0.00
2017-06-16 15:40:00,0,49952,0,0.00,0,0,0,0,49519,50000,144,50000,0,0,0,0,0.00,0.00,0.00,0.00
2017-06-16 15:50:00,0,48986,0,0.00,0,0,0,0,44455,50000,2039,50000,0,0,0,0,0.00,0.00,0.00,0.00
2017-06-16 16:00:00,0,49542,0,0.00,0,0,0,0,47436,50000,924,50000,0,0,0,0,0.00,0.00,0.00,0.00
2017-06-16 16:10:00,0,49678,0,0.00,0,0,0,0,48029,50000,664,50000,0,0,0,0,0.00,0.00,0.00,0.00
2017-06-16 16:20:00,0,50000,0,0.00,0,0,0,0,50000,50000,0,50000,0,0,0,0,0.00,0.00,0.00,0.00
2017-06-16 16:30:00,0,50000,0,0.00,0,0,0,0,50000,50000,0,50000,0,0,0,0,0.00,0.00,0.00,0.00
2017-06-16 16:40:00,0,50000,0,0.00,0,0,0,0,50000,50000,0,50000,0,0,0,0,0.00,0.00,0.00,0.00
2017-06-16 16:50:00,0,49924,0,0.00,0,0,0,0,49236,50000,229,50000,0,0,0,0,0.00,0.00,0.00,0.00
2017-06-16 17:00:00,0,49189,0,0.00,0,0,0,0,44708,50000,1642,50000,0,0,0,0,0.00,0.00,0.00,0.00
2017-06-16 17:10:00,0,50000,0,0.00,0,0,0,0,50000,50000,0,50000,0,0,0,0,0.00,0.00,0.00,0.00
2017-06-16 17:20:00,0,50000,0,0.00,0,0,0,0,50000,50000,0,50000,0,0,0,0,0.00,0.00,0.00,0.00
2017-06-16 17:30:00,0,50000,0,0.00,0,0,0,0,50000,50000,0,50000,0,0,0,0,0.00,0.00,0.00,0.00
2017-06-16 17:40:00,0,49920,0,0.00,0,0,0,0,49197,50000,241,50000,0,0,0,0,0.00,0.00,0.00,0.00
2017-06-16 17:50:00,0,50000,0,0.00,0,0,0,0,50000,50000,0,50000,0,0,0,0,0.00,0.00,0.00,0.00
2017-06-16 18:00:00,0,49848,0,0.00,0,0,0,0,48484,50000,455,50000,0,0,0,0,0.00,0.00,0.00,0.00
2017-06-16 18:10:00,0,50000,0,0.00,0,0,0,0,50000,50000,0,50000,0,0,0,0,0.00,0.00,0.00,0.00
2017-06-16 18:20:00,0,50000,0,0.00,0,0,0,0,50000,50000,0,50000,0,0,0,0,0.00,0.00,0.00,0.00
2017-06-16 18:30:00,0,49759,0,0.00,0,0,0,0,47708,50000,685,50000,0,0,0,0,0.00,0.00,0.00,0.00
2017-06-16 18:40:00,0,50000,0,0.00,0,0,0,0,50000,50000,0,50000,0,0,0,0,0.00,0.00,0.00,0.00
2017-06-16 18:50:00,0,49736,0,0.00,0,0,0,0,47355,50000,794,50000,0,0,0,0,0.00,0.00,0.00,0.00
2017-06-16 19:00:00,0,49857,0,0.00,0,0,0,0,48569,50000,429,50000,0,0,0,0,0.00,0.00,0.00,0.00
2017-06-16 19:10:00,0,40629,30,0.28,0,0,0,0,13916,50000,13576,50000,0,61,30,30,0.00,1.45,0.49,0.00
2017-06-16 19:20:00,0,47040,0,0.00,0,0,0,0,39180,50000,3741,49680,0,0,0,0,0.00,0.00,0.00,0.00
2017-06-16 19:30:00,0,49682,0,0.00,0,0,0,0,48308,50000,637,50000,0,0,0,0,0.00,0.00,0.00,0.00
2017-06-16 19:40:00,0,49782,0,0.00,0,0,0,0,47815,50000,656,50000,0,0,0,0,0.00,0.00,0.00,0.00
2017-06-16 19:50:00,0,49983,0,0.00,0,0,0,0,49829,50000,51,50000,0,0,0,0,0.00,0.00,0.00,0.00
2017-06-16 20:00:00,0,49865,0,0.00,0,0,0,0,48853,50000,343,50000,0,0,0,0,0.00,0.00,0.00,0.00
2017-06-16 20:10:00,0,50000,0,0.00,0,0,0,0,50000,50000,0,50000,0,0,0,0,0.00,0.00,0.00,0.00
2017-06-16 20:20:00,0,49541,0,0.00,0,0,0,0,45411,50000,1377,50000,0,0,0,0,0.00,0.00,0.00,0.00
2017-06-16 20:30:00,0,50000,0,0.00,0,0,0,0,50000,50000,0,50000,0,0,0,0,0.00,0.00,0.00,0.00
2017-06-16 20:40:00,0,50000,0,0.00,0,0,0,0,50000,50000,0,50000,0,0,0,0,0.00,0.00,0.00,0.00
2017-06-16 20:50:00,0,49577,0,0.00,0,0,0,0,46444,50000,1063,50000,0,0,0,0,0.00,0.00,0.00,0.00
2017-06-16 21:00:00,0,48557,0,0.00,0,0,0,0,43402,50000,2172,49767,0,0,0,0,0.00,0.00,0.00,0.00
2017-06-16 21:10:00,0,49237,0,0.00,0,0,0,0,46337,50000,1203,50000,0,0,0,0,0.00,0.00,0.00,0.00
2017-06-16 21:20:00,0,49305,0,0.00,0,0,0,0,45728,50000,1304,50000,0,0,0,0,0.00,0.00,0.00,0.00
2017-06-16 21:30:00,0,49182,0,0.00,0,0,0,0,45854,50000,1397,50000,0,0,0,0,0.00,0.00,0.00,0.00
2017-06-16 21:40:00,0,48677,0,0.00,0,0,0,0,42393,50000,2208,49548,0,0,0,0,0.00,0.00,0.00,0.00
2017-06-16 21:50:00,0,48981,0,0.00,0,0,0,0,46989,50000,1116,49500,0,0,0,0,0.00,0.00,0.00,0.00
2017-06-16 22:00:00,0,49117,0,0.00,0,0,0,0,44239,50000,1797,50000,0,0,0,0,0.00,0.00,0.00,0.00
2017-06-16 22:10:00,0,49282,0,0.00,0,0,0,0,46159,50000,1205,50000,0,0,0,0,0.00,0.00,0.00,0.00
2017-06-16 22:20:00,0,49375,0,0.00,0,0,0,0,48227,50000,656,49499,0,0,0,0,0.00,0.00,0.00,0.00
2017-06-16 22:30:00,0,48189,0,0.00,0,0,0,0,42959,50000,2582,49461,0,0,0,0,0.00,0.00,0.00,0.00
2017-06-16 22:40:00,0,48906,0,0.00,0,0,0,0,43963,50000,1897,49960,0,0,0,0,0.00,0.00,0.00,0.00
2017-06-16 22:50:00,0,48997,0,0.00,0,0,0,0,43431,50000,2123,50000,0,0,0,0,0.00,0.00,0.00,0.00
2017-06-16 23:00:00,0,49104,0,0.00,0,0,0,0,45661,50000,1466,50000,0,0,0,0,0.00,0.00,0.00,0.00
2017-06-16 23:10:00,0,49649,0,0.00,0,0,0,0,48085,50000,706,50000,0,0,0,0,0.00,0.00,0.00,0.00
2017-06-16 23:20:00,0,49866,0,0.00,0,0,0,0,48657,50000,403,50000,0,0,0,0,0.00,0.00,0.00,0.00
2017-06-16 23:30:00,0,46741,0,0.00,0,0,0,0,40454,50000,3579,47810,0,0,0,0,0.00,0.00,0.00,0.00
2017-06-16 23:40:00,0,48824,0,0.00,0,0,0,0,44199,50000,1864,49552,0,0,0,0,0.00,0.00,0.00,0.00
2017-06-16 23:50:00,0,42696,0,0.00,0,0,0,0,34221,50000,4310,42112,0,0,0,0,0.00,0.00,0.00,0.00
